Tracking 30995 objects as of 5-Jul-2025
HD Live streaming from Space Station
objects crossing your sky now

ARIANE 5 R/B

Track ARIANE 5 R/B now!


NORAD ID: 28904
Int'l Code: 2005-046C
Perigee: 413.8 km
Apogee: 35,358.1 km
Inclination: 6.9 °
Period: 626.6 minutes
Semi major axis: 24256 km
RCS: 36.3411 m2 (large)
Launch date: November 16, 2005
Source: France (FR)
Launch site: FRENCH GUIANA (FRGUI)

Note: This is a ROCKET BODY
Your satellite tracking list
Your tracking list is empty




NASA's NSSDC Master Catalog

Two Line Element Set (TLE):
1 28904U 05046C   25185.79662852 -.00000022  00000-0  26423-3 0  9999
2 28904   6.8678 249.3658 7202935  54.7442 352.8680  2.29799181164271
Source of the keplerian elements: AFSPC